C/2020 P1 ( NEOWISE )

Japanese version
Home page
Updated on April 4, 2021

---------------------------------------------------------------------

* Profile

Discovery Date August 2, 2020
Magnitude 19 mag
Discoverer Near-Earth Object Wide-field Infrared Survey Explorer

* Pictures

* Orbital Elements

Epoch 2020 Nov. 7.0 TT = JDT 2459160.5
T 2020 Oct. 20.17901 TT                                 Rudenko
q   0.3421784            (2000.0)            P               Q
z  -0.0008877      Peri.    8.89578     +0.49927226     -0.65322423
 +/-0.0000189      Node    53.53870     +0.74504410     -0.01170837
e   1.0003038      Incl.   45.05399     +0.44230814     +0.75707399
From 135 observations 2020 Aug. 2-Dec. 9, mean residual 1".0.

* Finding Charts

* Magnitudes Graph

        m1 = 14.0 + 5 log d + 10.0 log r(t + 8)  [  ,-8]  (             - 2020 Oct. 12)
        m1 = 15.0 + 5 log d + 12.0 log r(t + 8)  [-8,  ]  (2020 Oct. 12 -             )

---------------------------------------------------------------------

The orbital elements are published on M.P.E.C. 2021-B143.
The charts are made with StellaNavigator Ver.10 (AstroArts).
The magnitudes graphs are made with Comet for Windows.

---------------------------------------------------------------------

Copyright(C) Seiichi Yoshida (comet@aerith.net). All rights reserved.